owner,sensor,date,latitude,longitude,relative_humidity,qcFlag 
DISL,ioos:station:DISL:MBLA:1,2017-10-01T00:00:00Z,30.4367,-88.0117,66.02,1111122 
DISL,ioos:station:DISL:MBLA:1,2017-10-01T00:30:00Z,30.4367,-88.0117,72.94,1111122 
DISL,ioos:station:DISL:MBLA:1,2017-10-01T01:00:00Z,30.4367,-88.0117,65.68,1111122 
DISL,ioos:station:DISL:MBLA:1,2017-10-01T01:30:00Z,30.4367,-88.0117,71.11,1111122 
DISL,ioos:station:DISL:MBLA:1,2017-10-01T02:00:00Z,30.4367,-88.0117,67.48,1111122 
DISL,ioos:station:DISL:MBLA:1,2017-10-01T02:30:00Z,30.4367,-88.0117,70.33,1111122 
DISL,ioos:station:DISL:MBLA:1,2017-10-01T03:00:00Z,30.4367,-88.0117,71.24,1111122 
DISL,ioos:station:DISL:MBLA:1,2017-10-01T03:30:00Z,30.4367,-88.0117,73.78,1111122 
DISL,ioos:station:DISL:MBLA:1,2017-10-01T04:00:00Z,30.4367,-88.0117,70.6,1111122 
DISL,ioos:station:DISL:MBLA:1,2017-10-01T04:30:00Z,30.4367,-88.0117,71.24,1111122 
DISL,ioos:station:DISL:MBLA:1,2017-10-01T05:00:00Z,30.4367,-88.0117,78.29,1111122 
DISL,ioos:station:DISL:MBLA:1,2017-10-01T05:30:00Z,30.4367,-88.0117,75.21,1111122 
DISL,ioos:station:DISL:MBLA:1,2017-10-01T06:00:00Z,30.4367,-88.0117,76.29,1111122 
DISL,ioos:station:DISL:MBLA:1,2017-10-01T06:30:00Z,30.4367,-88.0117,74.97,1111122 
DISL,ioos:station:DISL:MBLA:1,2017-10-01T07:00:00Z,30.4367,-88.0117,75.62,1111122 
DISL,ioos:station:DISL:MBLA:1,2017-10-01T07:30:00Z,30.4367,-88.0117,78.27,1111122 
DISL,ioos:station:DISL:MBLA:1,2017-10-01T08:00:00Z,30.4367,-88.0117,80.7,1111122 
DISL,ioos:station:DISL:MBLA:1,2017-10-01T08:30:00Z,30.4367,-88.0117,80.9,1111122 
DISL,ioos:station:DISL:MBLA:1,2017-10-01T09:00:00Z,30.4367,-88.0117,79.84,1111122 
DISL,ioos:station:DISL:MBLA:1,2017-10-01T09:30:00Z,30.4367,-88.0117,81.2,1111122 
DISL,ioos:station:DISL:MBLA:1,2017-10-01T10:00:00Z,30.4367,-88.0117,74.69,1111122 
DISL,ioos:station:DISL:MBLA:1,2017-10-01T10:30:00Z,30.4367,-88.0117,75.71,1111122 
DISL,ioos:station:DISL:MBLA:1,2017-10-01T11:00:00Z,30.4367,-88.0117,73.61,1111122 
DISL,ioos:station:DISL:MBLA:1,2017-10-01T11:30:00Z,30.4367,-88.0117,75.06,1111122 
DISL,ioos:station:DISL:MBLA:1,2017-10-01T12:00:00Z,30.4367,-88.0117,69.44,1111122 
DISL,ioos:station:DISL:MBLA:1,2017-10-01T12:30:00Z,30.4367,-88.0117,71.06,1111122 
DISL,ioos:station:DISL:MBLA:1,2017-10-01T13:00:00Z,30.4367,-88.0117,67.47,1111122 
DISL,ioos:station:DISL:MBLA:1,2017-10-01T13:30:00Z,30.4367,-88.0117,65.64,1111122 
DISL,ioos:station:DISL:MBLA:1,2017-10-01T14:00:00Z,30.4367,-88.0117,64.59,1111122 
DISL,ioos:station:DISL:MBLA:1,2017-10-01T14:30:00Z,30.4367,-88.0117,62.65,1111122 
DISL,ioos:station:DISL:MBLA:1,2017-10-01T15:00:00Z,30.4367,-88.0117,63.57,1111122 
DISL,ioos:station:DISL:MBLA:1,2017-10-01T15:30:00Z,30.4367,-88.0117,61.77,1111122 
DISL,ioos:station:DISL:MBLA:1,2017-10-01T16:00:00Z,30.4367,-88.0117,58.77,1111122 
DISL,ioos:station:DISL:MBLA:1,2017-10-01T16:30:00Z,30.4367,-88.0117,59.24,1111122 
DISL,ioos:station:DISL:MBLA:1,2017-10-01T17:00:00Z,30.4367,-88.0117,57.99,1111122 
DISL,ioos:station:DISL:MBLA:1,2017-10-01T17:30:00Z,30.4367,-88.0117,54.8,1111122 
DISL,ioos:station:DISL:MBLA:1,2017-10-01T18:00:00Z,30.4367,-88.0117,53.14,1111122 
DISL,ioos:station:DISL:MBLA:1,2017-10-01T18:30:00Z,30.4367,-88.0117,52.91,1111122 
DISL,ioos:station:DISL:MBLA:1,2017-10-01T19:00:00Z,30.4367,-88.0117,55.58,1111122 
DISL,ioos:station:DISL:MBLA:1,2017-10-01T19:30:00Z,30.4367,-88.0117,54.63,1111122 
DISL,ioos:station:DISL:MBLA:1,2017-10-01T20:00:00Z,30.4367,-88.0117,55.04,1111122 
DISL,ioos:station:DISL:MBLA:1,2017-10-01T20:30:00Z,30.4367,-88.0117,65.28,1111122 
DISL,ioos:station:DISL:MBLA:1,2017-10-01T21:00:00Z,30.4367,-88.0117,61.62,1111122 
DISL,ioos:station:DISL:MBLA:1,2017-10-01T21:30:00Z,30.4367,-88.0117,64.8,1111122 
DISL,ioos:station:DISL:MBLA:1,2017-10-01T22:00:00Z,30.4367,-88.0117,60.37,1111122 
DISL,ioos:station:DISL:MBLA:1,2017-10-01T22:30:00Z,30.4367,-88.0117,60.58,1111122 
DISL,ioos:station:DISL:MBLA:1,2017-10-01T23:00:00Z,30.4367,-88.0117,65.77,1111122 
DISL,ioos:station:DISL:MBLA:1,2017-10-01T23:30:00Z,30.4367,-88.0117,66.11,1111122 
DISL,ioos:station:DISL:MBLA:1,2017-10-02T00:00:00Z,30.4367,-88.0117,69.61,1111122 
DISL,ioos:station:DISL:MBLA:1,2017-10-02T00:30:00Z,30.4367,-88.0117,76.76,1111122 
DISL,ioos:station:DISL:MBLA:1,2017-10-02T01:00:00Z,30.4367,-88.0117,80.1,1111122 
DISL,ioos:station:DISL:MBLA:1,2017-10-02T01:30:00Z,30.4367,-88.0117,77.68,1111122 
DISL,ioos:station:DISL:MBLA:1,2017-10-02T02:00:00Z,30.4367,-88.0117,76.81,1111122 
DISL,ioos:station:DISL:MBLA:1,2017-10-02T02:30:00Z,30.4367,-88.0117,74.81,1111122 
DISL,ioos:station:DISL:MBLA:1,2017-10-02T03:00:00Z,30.4367,-88.0117,75.63,1111122 
DISL,ioos:station:DISL:MBLA:1,2017-10-02T03:30:00Z,30.4367,-88.0117,73.49,1111122 
DISL,ioos:station:DISL:MBLA:1,2017-10-02T04:00:00Z,30.4367,-88.0117,73.83,1111122 
DISL,ioos:station:DISL:MBLA:1,2017-10-02T04:30:00Z,30.4367,-88.0117,73.09,1111122 
DISL,ioos:station:DISL:MBLA:1,2017-10-02T05:00:00Z,30.4367,-88.0117,72.04,1111122 
DISL,ioos:station:DISL:MBLA:1,2017-10-02T05:30:00Z,30.4367,-88.0117,71.53,1111122 
DISL,ioos:station:DISL:MBLA:1,2017-10-02T06:00:00Z,30.4367,-88.0117,73.9,1111122 
DISL,ioos:station:DISL:MBLA:1,2017-10-02T06:30:00Z,30.4367,-88.0117,70.1,1111122 
DISL,ioos:station:DISL:MBLA:1,2017-10-02T07:00:00Z,30.4367,-88.0117,72.85,1111122 
DISL,ioos:station:DISL:MBLA:1,2017-10-02T07:30:00Z,30.4367,-88.0117,74.82,1111122 
DISL,ioos:station:DISL:MBLA:1,2017-10-02T08:00:00Z,30.4367,-88.0117,72.41,1111122 
DISL,ioos:station:DISL:MBLA:1,2017-10-02T08:30:00Z,30.4367,-88.0117,73.36,1111122 
DISL,ioos:station:DISL:MBLA:1,2017-10-02T09:00:00Z,30.4367,-88.0117,74.75,1111122 
DISL,ioos:station:DISL:MBLA:1,2017-10-02T09:30:00Z,30.4367,-88.0117,74.84,1111122 
DISL,ioos:station:DISL:MBLA:1,2017-10-02T10:00:00Z,30.4367,-88.0117,75.04,1111122 
DISL,ioos:station:DISL:MBLA:1,2017-10-02T10:30:00Z,30.4367,-88.0117,76.33,1111122 
DISL,ioos:station:DISL:MBLA:1,2017-10-02T11:00:00Z,30.4367,-88.0117,75.08,1111122 
DISL,ioos:station:DISL:MBLA:1,2017-10-02T11:30:00Z,30.4367,-88.0117,75.68,1111122 
DISL,ioos:station:DISL:MBLA:1,2017-10-02T12:00:00Z,30.4367,-88.0117,76.8,1111122 
DISL,ioos:station:DISL:MBLA:1,2017-10-02T12:30:00Z,30.4367,-88.0117,76.94,1111122 
DISL,ioos:station:DISL:MBLA:1,2017-10-02T13:00:00Z,30.4367,-88.0117,75.38,1111122 
DISL,ioos:station:DISL:MBLA:1,2017-10-02T13:30:00Z,30.4367,-88.0117,75.3,1111122 
DISL,ioos:station:DISL:MBLA:1,2017-10-02T14:00:00Z,30.4367,-88.0117,74.01,1111122 
DISL,ioos:station:DISL:MBLA:1,2017-10-02T14:30:00Z,30.4367,-88.0117,73.06,1111122 
DISL,ioos:station:DISL:MBLA:1,2017-10-02T15:00:00Z,30.4367,-88.0117,72.08,1111122 
DISL,ioos:station:DISL:MBLA:1,2017-10-02T15:30:00Z,30.4367,-88.0117,72.96,1111122 
DISL,ioos:station:DISL:MBLA:1,2017-10-02T16:00:00Z,30.4367,-88.0117,71.06,1111122 
DISL,ioos:station:DISL:MBLA:1,2017-10-02T16:30:00Z,30.4367,-88.0117,68.59,1111122 
DISL,ioos:station:DISL:MBLA:1,2017-10-02T17:00:00Z,30.4367,-88.0117,69.39,1111122 
DISL,ioos:station:DISL:MBLA:1,2017-10-02T17:30:00Z,30.4367,-88.0117,69.62,1111122 
DISL,ioos:station:DISL:MBLA:1,2017-10-02T18:00:00Z,30.4367,-88.0117,67.85,1111122 
DISL,ioos:station:DISL:MBLA:1,2017-10-02T18:30:00Z,30.4367,-88.0117,67.41,1111122 
DISL,ioos:station:DISL:MBLA:1,2017-10-02T19:00:00Z,30.4367,-88.0117,69.21,1111122 
DISL,ioos:station:DISL:MBLA:1,2017-10-02T19:30:00Z,30.4367,-88.0117,68.16,1111122 
DISL,ioos:station:DISL:MBLA:1,2017-10-02T20:00:00Z,30.4367,-88.0117,65.89,1111122 
DISL,ioos:station:DISL:MBLA:1,2017-10-02T20:30:00Z,30.4367,-88.0117,70.8,1111122 
DISL,ioos:station:DISL:MBLA:1,2017-10-02T21:00:00Z,30.4367,-88.0117,75.66,1111122 
DISL,ioos:station:DISL:MBLA:1,2017-10-02T21:30:00Z,30.4367,-88.0117,75.97,1111122 
DISL,ioos:station:DISL:MBLA:1,2017-10-02T22:00:00Z,30.4367,-88.0117,74.96,1111122 
DISL,ioos:station:DISL:MBLA:1,2017-10-02T22:30:00Z,30.4367,-88.0117,74.32,1111122 
DISL,ioos:station:DISL:MBLA:1,2017-10-02T23:00:00Z,30.4367,-88.0117,72.55,1111122 
DISL,ioos:station:DISL:MBLA:1,2017-10-02T23:30:00Z,30.4367,-88.0117,70.66,1111122 
DISL,ioos:station:DISL:MBLA:1,2017-10-03T00:00:00Z,30.4367,-88.0117,65.94,1111122 
DISL,ioos:station:DISL:MBLA:1,2017-10-03T00:30:00Z,30.4367,-88.0117,67.42,1111122 
DISL,ioos:station:DISL:MBLA:1,2017-10-03T01:00:00Z,30.4367,-88.0117,65.22,1111122 
DISL,ioos:station:DISL:MBLA:1,2017-10-03T01:30:00Z,30.4367,-88.0117,66.14,1111122 
DISL,ioos:station:DISL:MBLA:1,2017-10-03T02:00:00Z,30.4367,-88.0117,71.36,1111122 
DISL,ioos:station:DISL:MBLA:1,2017-10-03T02:30:00Z,30.4367,-88.0117,68.01,1111122 
DISL,ioos:station:DISL:MBLA:1,2017-10-03T03:00:00Z,30.4367,-88.0117,66.72,1111122 
DISL,ioos:station:DISL:MBLA:1,2017-10-03T03:30:00Z,30.4367,-88.0117,69.1,1111122 
DISL,ioos:station:DISL:MBLA:1,2017-10-03T04:00:00Z,30.4367,-88.0117,67.71,1111122 
DISL,ioos:station:DISL:MBLA:1,2017-10-03T04:30:00Z,30.4367,-88.0117,68.45,1111122 
DISL,ioos:station:DISL:MBLA:1,2017-10-03T05:00:00Z,30.4367,-88.0117,69.47,1111122 
DISL,ioos:station:DISL:MBLA:1,2017-10-03T05:30:00Z,30.4367,-88.0117,69.44,1111122 
DISL,ioos:station:DISL:MBLA:1,2017-10-03T06:00:00Z,30.4367,-88.0117,71.03,1111122 
DISL,ioos:station:DISL:MBLA:1,2017-10-03T06:30:00Z,30.4367,-88.0117,70.79,1111122 
DISL,ioos:station:DISL:MBLA:1,2017-10-03T07:00:00Z,30.4367,-88.0117,71.27,1111122 
DISL,ioos:station:DISL:MBLA:1,2017-10-03T07:30:00Z,30.4367,-88.0117,72.72,1111122 
DISL,ioos:station:DISL:MBLA:1,2017-10-03T08:00:00Z,30.4367,-88.0117,72.39,1111122 
DISL,ioos:station:DISL:MBLA:1,2017-10-03T08:30:00Z,30.4367,-88.0117,74.62,1111122 
DISL,ioos:station:DISL:MBLA:1,2017-10-03T09:00:00Z,30.4367,-88.0117,74.15,1111122 
DISL,ioos:station:DISL:MBLA:1,2017-10-03T09:30:00Z,30.4367,-88.0117,73.4,1111122 
DISL,ioos:station:DISL:MBLA:1,2017-10-03T10:00:00Z,30.4367,-88.0117,72.86,1111122 
DISL,ioos:station:DISL:MBLA:1,2017-10-03T10:30:00Z,30.4367,-88.0117,73.03,1111122 
DISL,ioos:station:DISL:MBLA:1,2017-10-03T11:00:00Z,30.4367,-88.0117,73.61,1111122 
DISL,ioos:station:DISL:MBLA:1,2017-10-03T11:30:00Z,30.4367,-88.0117,74.49,1111122 
DISL,ioos:station:DISL:MBLA:1,2017-10-03T12:00:00Z,30.4367,-88.0117,74.35,1111122 
DISL,ioos:station:DISL:MBLA:1,2017-10-03T12:30:00Z,30.4367,-88.0117,73.78,1111122 
DISL,ioos:station:DISL:MBLA:1,2017-10-03T13:00:00Z,30.4367,-88.0117,74.08,1111122 
DISL,ioos:station:DISL:MBLA:1,2017-10-03T13:30:00Z,30.4367,-88.0117,73.74,1111122 
DISL,ioos:station:DISL:MBLA:1,2017-10-03T14:00:00Z,30.4367,-88.0117,72.25,1111122 
DISL,ioos:station:DISL:MBLA:1,2017-10-03T14:30:00Z,30.4367,-88.0117,70.52,1111122 
DISL,ioos:station:DISL:MBLA:1,2017-10-03T15:00:00Z,30.4367,-88.0117,64.08,1111122 
DISL,ioos:station:DISL:MBLA:1,2017-10-03T15:30:00Z,30.4367,-88.0117,58.37,1111122 
DISL,ioos:station:DISL:MBLA:1,2017-10-03T16:00:00Z,30.4367,-88.0117,55.08,1111122 
DISL,ioos:station:DISL:MBLA:1,2017-10-03T16:30:00Z,30.4367,-88.0117,50.33,1111122 
DISL,ioos:station:DISL:MBLA:1,2017-10-03T17:00:00Z,30.4367,-88.0117,55.79,1111122 
DISL,ioos:station:DISL:MBLA:1,2017-10-03T17:30:00Z,30.4367,-88.0117,48.5,1111122 
DISL,ioos:station:DISL:MBLA:1,2017-10-03T18:00:00Z,30.4367,-88.0117,42.84,1111122 
DISL,ioos:station:DISL:MBLA:1,2017-10-03T18:30:00Z,30.4367,-88.0117,45.55,1111122 
DISL,ioos:station:DISL:MBLA:1,2017-10-03T19:00:00Z,30.4367,-88.0117,47.89,1111122 
DISL,ioos:station:DISL:MBLA:1,2017-10-03T19:30:00Z,30.4367,-88.0117,51.92,1111122 
DISL,ioos:station:DISL:MBLA:1,2017-10-03T20:00:00Z,30.4367,-88.0117,53.31,1111122 
DISL,ioos:station:DISL:MBLA:1,2017-10-03T20:30:00Z,30.4367,-88.0117,42.23,1111122 
DISL,ioos:station:DISL:MBLA:1,2017-10-03T21:00:00Z,30.4367,-88.0117,39.07,1111122 
DISL,ioos:station:DISL:MBLA:1,2017-10-03T21:30:00Z,30.4367,-88.0117,51.37,1111122 
DISL,ioos:station:DISL:MBLA:1,2017-10-03T22:30:00Z,30.4367,-88.0117,55.38,1111122 
DISL,ioos:station:DISL:MBLA:1,2017-10-03T23:30:00Z,30.4367,-88.0117,58.3,1111122 
DISL,ioos:station:DISL:MBLA:1,2017-10-04T00:30:00Z,30.4367,-88.0117,50.23,1111122 
DISL,ioos:station:DISL:MBLA:1,2017-10-04T01:30:00Z,30.4367,-88.0117,52.91,1111122 
DISL,ioos:station:DISL:MBLA:1,2017-10-04T02:30:00Z,30.4367,-88.0117,55.39,1111122 
DISL,ioos:station:DISL:MBLA:1,2017-10-04T03:30:00Z,30.4367,-88.0117,,1111122 
DISL,ioos:station:DISL:MBLA:1,2017-10-04T04:30:00Z,30.4367,-88.0117,56.72,1111122 
DISL,ioos:station:DISL:MBLA:1,2017-10-04T05:30:00Z,30.4367,-88.0117,60.79,1111122 
DISL,ioos:station:DISL:MBLA:1,2017-10-04T06:30:00Z,30.4367,-88.0117,60.42,1111122 
DISL,ioos:station:DISL:MBLA:1,2017-10-04T07:30:00Z,30.4367,-88.0117,63.3,1111122 
DISL,ioos:station:DISL:MBLA:1,2017-10-04T08:30:00Z,30.4367,-88.0117,66.11,1111122 
DISL,ioos:station:DISL:MBLA:1,2017-10-04T09:30:00Z,30.4367,-88.0117,66.05,1111122 
DISL,ioos:station:DISL:MBLA:1,2017-10-04T11:00:00Z,30.4367,-88.0117,70.33,1111122 
DISL,ioos:station:DISL:MBLA:1,2017-10-04T12:30:00Z,30.4367,-88.0117,69.45,1111122 
DISL,ioos:station:DISL:MBLA:1,2017-10-04T13:30:00Z,30.4367,-88.0117,72.26,1111122 
DISL,ioos:station:DISL:MBLA:1,2017-10-04T14:30:00Z,30.4367,-88.0117,68.22,1111122 
DISL,ioos:station:DISL:MBLA:1,2017-10-04T15:30:00Z,30.4367,-88.0117,64.04,1111122 
DISL,ioos:station:DISL:MBLA:1,2017-10-04T16:30:00Z,30.4367,-88.0117,60.11,1111122 
DISL,ioos:station:DISL:MBLA:1,2017-10-04T17:30:00Z,30.4367,-88.0117,55.72,1111122 
DISL,ioos:station:DISL:MBLA:1,2017-10-04T18:30:00Z,30.4367,-88.0117,52.06,1111122 
DISL,ioos:station:DISL:MBLA:1,2017-10-04T19:30:00Z,30.4367,-88.0117,49.69,1111122 
DISL,ioos:station:DISL:MBLA:1,2017-10-04T20:30:00Z,30.4367,-88.0117,35.98,1111122 
DISL,ioos:station:DISL:MBLA:1,2017-10-04T21:30:00Z,30.4367,-88.0117,48.89,1111122 
DISL,ioos:station:DISL:MBLA:1,2017-10-04T22:30:00Z,30.4367,-88.0117,53.09,1111122 
DISL,ioos:station:DISL:MBLA:1,2017-10-04T23:30:00Z,30.4367,-88.0117,55.23,1111122 
DISL,ioos:station:DISL:MBLA:1,2017-10-05T00:30:00Z,30.4367,-88.0117,63.58,1111122 
DISL,ioos:station:DISL:MBLA:1,2017-10-05T01:30:00Z,30.4367,-88.0117,57.82,1111122 
DISL,ioos:station:DISL:MBLA:1,2017-10-05T02:30:00Z,30.4367,-88.0117,,1111122 
DISL,ioos:station:DISL:MBLA:1,2017-10-05T03:30:00Z,30.4367,-88.0117,,1111122 
DISL,ioos:station:DISL:MBLA:1,2017-10-05T04:30:00Z,30.4367,-88.0117,55.23,1111122 
DISL,ioos:station:DISL:MBLA:1,2017-10-05T05:30:00Z,30.4367,-88.0117,58.93,1111122 
DISL,ioos:station:DISL:MBLA:1,2017-10-05T06:30:00Z,30.4367,-88.0117,60.89,1111122 
DISL,ioos:station:DISL:MBLA:1,2017-10-05T07:30:00Z,30.4367,-88.0117,61.54,1111122 
DISL,ioos:station:DISL:MBLA:1,2017-10-05T08:30:00Z,30.4367,-88.0117,66.72,1111122 
DISL,ioos:station:DISL:MBLA:1,2017-10-05T09:30:00Z,30.4367,-88.0117,66.45,1111122 
DISL,ioos:station:DISL:MBLA:1,2017-10-05T10:30:00Z,30.4367,-88.0117,67.64,1111122 
DISL,ioos:station:DISL:MBLA:1,2017-10-05T11:30:00Z,30.4367,-88.0117,69.38,1111122 
DISL,ioos:station:DISL:MBLA:1,2017-10-05T12:30:00Z,30.4367,-88.0117,66.36,1111122 
DISL,ioos:station:DISL:MBLA:1,2017-10-05T13:30:00Z,30.4367,-88.0117,68.59,1111122 
DISL,ioos:station:DISL:MBLA:1,2017-10-05T14:30:00Z,30.4367,-88.0117,59.4,1111122 
DISL,ioos:station:DISL:MBLA:1,2017-10-05T15:30:00Z,30.4367,-88.0117,54.59,1111122 
DISL,ioos:station:DISL:MBLA:1,2017-10-05T16:30:00Z,30.4367,-88.0117,52.77,1111122 
DISL,ioos:station:DISL:MBLA:1,2017-10-05T17:30:00Z,30.4367,-88.0117,46.53,1111122 
DISL,ioos:station:DISL:MBLA:1,2017-10-05T18:30:00Z,30.4367,-88.0117,44.52,1111122 
DISL,ioos:station:DISL:MBLA:1,2017-10-05T19:30:00Z,30.4367,-88.0117,46.08,1111122 
DISL,ioos:station:DISL:MBLA:1,2017-10-05T20:30:00Z,30.4367,-88.0117,51.33,1111122 
DISL,ioos:station:DISL:MBLA:1,2017-10-05T21:30:00Z,30.4367,-88.0117,46.45,1111122 
DISL,ioos:station:DISL:MBLA:1,2017-10-05T22:30:00Z,30.4367,-88.0117,46.35,1111122 
DISL,ioos:station:DISL:MBLA:1,2017-10-05T23:30:00Z,30.4367,-88.0117,55.09,1111122 
DISL,ioos:station:DISL:MBLA:1,2017-10-06T00:30:00Z,30.4367,-88.0117,58.57,1111122 
DISL,ioos:station:DISL:MBLA:1,2017-10-06T01:30:00Z,30.4367,-88.0117,56.16,1111122 
DISL,ioos:station:DISL:MBLA:1,2017-10-06T02:30:00Z,30.4367,-88.0117,,1111122 
DISL,ioos:station:DISL:MBLA:1,2017-10-06T03:30:00Z,30.4367,-88.0117,,1111122 
DISL,ioos:station:DISL:MBLA:1,2017-10-06T04:30:00Z,30.4367,-88.0117,59.12,1111122 
DISL,ioos:station:DISL:MBLA:1,2017-10-06T05:30:00Z,30.4367,-88.0117,62.15,1111122 
DISL,ioos:station:DISL:MBLA:1,2017-10-06T06:30:00Z,30.4367,-88.0117,63.64,1111122 
DISL,ioos:station:DISL:MBLA:1,2017-10-06T07:30:00Z,30.4367,-88.0117,64.86,1111122 
DISL,ioos:station:DISL:MBLA:1,2017-10-06T08:30:00Z,30.4367,-88.0117,65.6,1111122 
DISL,ioos:station:DISL:MBLA:1,2017-10-06T09:30:00Z,30.4367,-88.0117,67.77,1111122 
DISL,ioos:station:DISL:MBLA:1,2017-10-06T10:30:00Z,30.4367,-88.0117,67.64,1111122 
DISL,ioos:station:DISL:MBLA:1,2017-10-06T11:30:00Z,30.4367,-88.0117,69.47,1111122 
DISL,ioos:station:DISL:MBLA:1,2017-10-06T12:30:00Z,30.4367,-88.0117,71.61,1111122 
DISL,ioos:station:DISL:MBLA:1,2017-10-06T13:30:00Z,30.4367,-88.0117,69.1,1111122 
DISL,ioos:station:DISL:MBLA:1,2017-10-06T14:30:00Z,30.4367,-88.0117,59.6,1111122 
DISL,ioos:station:DISL:MBLA:1,2017-10-06T15:30:00Z,30.4367,-88.0117,56.8,1111122 
DISL,ioos:station:DISL:MBLA:1,2017-10-06T16:30:00Z,30.4367,-88.0117,55.69,1111122 
DISL,ioos:station:DISL:MBLA:1,2017-10-06T17:30:00Z,30.4367,-88.0117,53.65,1111122 
DISL,ioos:station:DISL:MBLA:1,2017-10-06T18:30:00Z,30.4367,-88.0117,49.89,1111122 
DISL,ioos:station:DISL:MBLA:1,2017-10-06T19:30:00Z,30.4367,-88.0117,49.71,1111122 
DISL,ioos:station:DISL:MBLA:1,2017-10-06T20:30:00Z,30.4367,-88.0117,69.1,1111122 
DISL,ioos:station:DISL:MBLA:1,2017-10-06T21:30:00Z,30.4367,-88.0117,68.5,1111122 
DISL,ioos:station:DISL:MBLA:1,2017-10-06T22:30:00Z,30.4367,-88.0117,65.99,1111122 
DISL,ioos:station:DISL:MBLA:1,2017-10-06T23:30:00Z,30.4367,-88.0117,65.82,1111122 
DISL,ioos:station:DISL:MBLA:1,2017-10-07T00:30:00Z,30.4367,-88.0117,70.06,1111122 
DISL,ioos:station:DISL:MBLA:1,2017-10-07T01:30:00Z,30.4367,-88.0117,73.11,1111122 
DISL,ioos:station:DISL:MBLA:1,2017-10-07T02:30:00Z,30.4367,-88.0117,,1111122 
DISL,ioos:station:DISL:MBLA:1,2017-10-07T03:30:00Z,30.4367,-88.0117,,1111122 
DISL,ioos:station:DISL:MBLA:1,2017-10-07T04:30:00Z,30.4367,-88.0117,80.2,1111122 
DISL,ioos:station:DISL:MBLA:1,2017-10-07T05:30:00Z,30.4367,-88.0117,82.1,1111122 
DISL,ioos:station:DISL:MBLA:1,2017-10-07T06:30:00Z,30.4367,-88.0117,82.6,1111122 
DISL,ioos:station:DISL:MBLA:1,2017-10-07T07:30:00Z,30.4367,-88.0117,83.6,1111122 
DISL,ioos:station:DISL:MBLA:1,2017-10-07T08:30:00Z,30.4367,-88.0117,83.8,1111122 
DISL,ioos:station:DISL:MBLA:1,2017-10-07T09:30:00Z,30.4367,-88.0117,82.5,1111122 
DISL,ioos:station:DISL:MBLA:1,2017-10-07T10:30:00Z,30.4367,-88.0117,81.9,1111122 
DISL,ioos:station:DISL:MBLA:1,2017-10-07T11:30:00Z,30.4367,-88.0117,82.6,1111122 
DISL,ioos:station:DISL:MBLA:1,2017-10-07T12:30:00Z,30.4367,-88.0117,83.0,1111122 
DISL,ioos:station:DISL:MBLA:1,2017-10-07T13:30:00Z,30.4367,-88.0117,82.1,1111122 
DISL,ioos:station:DISL:MBLA:1,2017-10-07T14:30:00Z,30.4367,-88.0117,81.6,1111122 
DISL,ioos:station:DISL:MBLA:1,2017-10-07T15:30:00Z,30.4367,-88.0117,78.5,1111122 
DISL,ioos:station:DISL:MBLA:1,2017-10-07T16:30:00Z,30.4367,-88.0117,69.17,1111122 
DISL,ioos:station:DISL:MBLA:1,2017-10-07T17:30:00Z,30.4367,-88.0117,69.21,1111122 
DISL,ioos:station:DISL:MBLA:1,2017-10-07T18:30:00Z,30.4367,-88.0117,70.19,1111122 
DISL,ioos:station:DISL:MBLA:1,2017-10-07T19:30:00Z,30.4367,-88.0117,79.48,1111122 
DISL,ioos:station:DISL:MBLA:1,2017-10-07T20:30:00Z,30.4367,-88.0117,77.55,1111122 
DISL,ioos:station:DISL:MBLA:1,2017-10-07T21:30:00Z,30.4367,-88.0117,,1111122 
DISL,ioos:station:DISL:MBLA:1,2017-10-07T22:30:00Z,30.4367,-88.0117,99.3,1111122 
DISL,ioos:station:DISL:MBLA:1,2017-10-07T23:30:00Z,30.4367,-88.0117,76.86,1111122 
DISL,ioos:station:DISL:MBLA:1,2017-10-08T00:30:00Z,30.4367,-88.0117,83.0,1111122 
DISL,ioos:station:DISL:MBLA:1,2017-10-08T01:30:00Z,30.4367,-88.0117,89.9,1111122 
DISL,ioos:station:DISL:MBLA:1,2017-10-08T02:30:00Z,30.4367,-88.0117,84.8,1111122 
DISL,ioos:station:DISL:MBLA:1,2017-10-08T03:30:00Z,30.4367,-88.0117,84.8,1111122 
DISL,ioos:station:DISL:MBLA:1,2017-10-08T04:30:00Z,30.4367,-88.0117,85.1,1111122 
DISL,ioos:station:DISL:MBLA:1,2017-10-08T05:30:00Z,30.4367,-88.0117,82.7,1111122 
DISL,ioos:station:DISL:MBLA:1,2017-10-08T06:30:00Z,30.4367,-88.0117,75.86,1111122 
DISL,ioos:station:DISL:MBLA:1,2017-10-08T07:30:00Z,30.4367,-88.0117,80.4,1111122 
DISL,ioos:station:DISL:MBLA:1,2017-10-08T08:30:00Z,30.4367,-88.0117,75.33,1111122 
DISL,ioos:station:DISL:MBLA:1,2017-10-08T09:30:00Z,30.4367,-88.0117,78.19,1111122 
DISL,ioos:station:DISL:MBLA:1,2017-10-08T10:30:00Z,30.4367,-88.0117,78.03,1111122 
DISL,ioos:station:DISL:MBLA:1,2017-10-08T11:30:00Z,30.4367,-88.0117,78.13,1111122 
DISL,ioos:station:DISL:MBLA:1,2017-10-08T12:30:00Z,30.4367,-88.0117,77.79,1111122 
DISL,ioos:station:DISL:MBLA:1,2017-10-08T13:30:00Z,30.4367,-88.0117,78.78,1111122 
DISL,ioos:station:DISL:MBLA:1,2017-10-08T14:30:00Z,30.4367,-88.0117,79.48,1111122 
DISL,ioos:station:DISL:MBLA:1,2017-10-08T15:30:00Z,30.4367,-88.0117,78.19,1111122 
DISL,ioos:station:DISL:MBLA:1,2017-10-08T16:30:00Z,30.4367,-88.0117,76.05,1111122 
DISL,ioos:station:DISL:MBLA:1,2017-10-08T17:30:00Z,30.4367,-88.0117,76.87,1111122 
DISL,ioos:station:DISL:MBLA:1,2017-10-08T18:30:00Z,30.4367,-88.0117,76.7,1111122 
DISL,ioos:station:DISL:MBLA:1,2017-10-08T19:30:00Z,30.4367,-88.0117,76.97,1111122 
DISL,ioos:station:DISL:MBLA:1,2017-10-08T20:30:00Z,30.4367,-88.0117,78.56,1111122 
DISL,ioos:station:DISL:MBLA:1,2017-10-08T21:30:00Z,30.4367,-88.0117,79.48,1111122 
DISL,ioos:station:DISL:MBLA:1,2017-10-08T22:30:00Z,30.4367,-88.0117,80.1,1111122 
DISL,ioos:station:DISL:MBLA:1,2017-10-08T23:30:00Z,30.4367,-88.0117,81.8,1111122 
DISL,ioos:station:DISL:MBLA:1,2017-10-09T00:30:00Z,30.4367,-88.0117,84.2,1111122 
DISL,ioos:station:DISL:MBLA:1,2017-10-09T01:30:00Z,30.4367,-88.0117,85.4,1111122 
DISL,ioos:station:DISL:MBLA:1,2017-10-09T02:30:00Z,30.4367,-88.0117,86.7,1111122 
DISL,ioos:station:DISL:MBLA:1,2017-10-09T03:30:00Z,30.4367,-88.0117,,1111122 
DISL,ioos:station:DISL:MBLA:1,2017-10-09T04:30:00Z,30.4367,-88.0117,96.1,1111122 
DISL,ioos:station:DISL:MBLA:1,2017-10-09T05:30:00Z,30.4367,-88.0117,90.9,1111122 
DISL,ioos:station:DISL:MBLA:1,2017-10-09T06:30:00Z,30.4367,-88.0117,88.9,1111122 
DISL,ioos:station:DISL:MBLA:1,2017-10-09T07:30:00Z,30.4367,-88.0117,93.4,1111122 
DISL,ioos:station:DISL:MBLA:1,2017-10-09T08:30:00Z,30.4367,-88.0117,94.7,1111122 
DISL,ioos:station:DISL:MBLA:1,2017-10-09T09:30:00Z,30.4367,-88.0117,95.5,1111122 
DISL,ioos:station:DISL:MBLA:1,2017-10-09T10:30:00Z,30.4367,-88.0117,96.1,1111122 
DISL,ioos:station:DISL:MBLA:1,2017-10-09T11:30:00Z,30.4367,-88.0117,97.5,1111122 
DISL,ioos:station:DISL:MBLA:1,2017-10-09T12:30:00Z,30.4367,-88.0117,97.4,1111122 
DISL,ioos:station:DISL:MBLA:1,2017-10-09T13:30:00Z,30.4367,-88.0117,96.7,1111122 
DISL,ioos:station:DISL:MBLA:1,2017-10-09T14:30:00Z,30.4367,-88.0117,82.4,1111122 
DISL,ioos:station:DISL:MBLA:1,2017-10-09T15:30:00Z,30.4367,-88.0117,81.3,1111122 
DISL,ioos:station:DISL:MBLA:1,2017-10-09T16:30:00Z,30.4367,-88.0117,79.99,1111122 
DISL,ioos:station:DISL:MBLA:1,2017-10-09T17:00:00Z,30.4367,-88.0117,79.92,1111122 
DISL,ioos:station:DISL:MBLA:1,2017-10-09T18:00:00Z,30.4367,-88.0117,79.58,1111122 
DISL,ioos:station:DISL:MBLA:1,2017-10-09T19:30:00Z,30.4367,-88.0117,82.7,1111122 
DISL,ioos:station:DISL:MBLA:1,2017-10-09T20:30:00Z,30.4367,-88.0117,80.3,1111122 
DISL,ioos:station:DISL:MBLA:1,2017-10-09T21:30:00Z,30.4367,-88.0117,79.04,1111122 
DISL,ioos:station:DISL:MBLA:1,2017-10-09T22:30:00Z,30.4367,-88.0117,81.9,1111122 
DISL,ioos:station:DISL:MBLA:1,2017-10-09T23:30:00Z,30.4367,-88.0117,82.0,1111122 
DISL,ioos:station:DISL:MBLA:1,2017-10-10T00:30:00Z,30.4367,-88.0117,82.9,1111122 
DISL,ioos:station:DISL:MBLA:1,2017-10-10T01:30:00Z,30.4367,-88.0117,82.7,1111122 
DISL,ioos:station:DISL:MBLA:1,2017-10-10T02:30:00Z,30.4367,-88.0117,84.0,1111122 
DISL,ioos:station:DISL:MBLA:1,2017-10-10T03:30:00Z,30.4367,-88.0117,83.5,1111122 